Location: Le Petit-Vavre
(46.5081°N, 1.5239°E)
Time: 21:43:18
(UTC+00:00)

Cosmos 2333 Rocket - Pass Details

Date: 03 March 2021
Orbit: 837 x 864 km, 70.8° (Epoch: 22 April)

Event Time Altitude Azimuth Distance (km) Brightness Sun altitude
Rises 18:46:52 0° 169° (S) 3,385 5.2 -11.8°
Reaches altitude 10° 18:49:40 10° 157° (SSE) 2,459 4.4 -12.3°
Maximum altitude 18:54:13 26° 103° (ESE) 1,625 3.1 -13.1°
Drops below altitude 10° 18:58:48 10° 49° (NE) 2,488 4.2 -13.8°
Sets 19:01:38 0° 37° (NE) 3,433 5.1 -14.3°
